Location: Chuathbaluk
(61.5726°N, 159.2454°W)
Time: 05:46:17
(UTC+00:00)

FO-99 - Pass Details

Date: 25 January 2021
Orbit: 473 x 506 km, 97.2° (Epoch: 08 March)

Event Time Altitude Azimuth Distance (km) Brightness Sun altitude
Exits shadow 04:51:07 14° 17° (NNE) 1,490 ? -16.8°
Drops below altitude 10° 04:51:52 10° 7° (N) 1,699 ? -16.9°
Sets 04:54:22 0° 349° (N) 2,578 ? -17.2°
